20040127,000003,1832225,37.389833,-124.102167,NaN,12.663,32.667,38.201,  NaN,0.0, NaN, NaN, NaN, NaN, NaN,327.946,10.70,1020.94,95.40,NaN,319.0,NaN,12.2,NaN,178.0,NaN,9.6,NaN,NaN, NaN,NaN,234.0,NaN,NaN,NaN,2,9.8,000001,   NaN,237.7,     NaN,      NaN,NaN,5.8,NaN,12.666, NaN,NaN,NaN, NaN, NaN

20040127,000033,1832255,37.389167,-124.103500,NaN,12.664,32.667,38.202,  NaN,0.0, NaN, NaN, NaN, NaN, NaN,327.961,10.70,1020.61,95.90,NaN,320.0,NaN,10.9,NaN,171.4,NaN,7.6,NaN,NaN, NaN,NaN,235.0,NaN,NaN,NaN,2,9.8,000031,   NaN,236.7,     NaN,      NaN,NaN,5.4,NaN,12.667, NaN,NaN,NaN, NaN, NaN

20040127,000103,1832285,37.388333,-124.105000,NaN,12.665,32.666,38.202,  NaN,0.0, NaN, NaN, NaN, NaN, NaN,328.079,10.70,1021.29,95.40,NaN,317.0,NaN,11.2,NaN,173.2,NaN,8.1,NaN,NaN, NaN,NaN,238.0,NaN,NaN,NaN,2,9.8,000061,   NaN,239.2,     NaN,      NaN,NaN,6.0,NaN,12.668, NaN,NaN,NaN, NaN, NaN

20040127,000133,1832315,37.387667,-124.106500,NaN,12.668,32.664,38.202,  NaN,0.0, NaN, NaN, NaN, NaN, NaN,328.236,10.70,1021.10,95.50,NaN,321.0,NaN,10.4,NaN,169.8,NaN,7.1,NaN,NaN, NaN,NaN,239.0,NaN,NaN,NaN,2,9.9,000091,   NaN,237.2,     NaN,      NaN,NaN,5.5,NaN,12.671, NaN,NaN,NaN, NaN, NaN

20040127,000203,1832345,37.387000,-124.107833,NaN,12.667,32.665,38.202,  NaN,0.0, NaN, NaN, NaN, NaN, NaN,328.190,10.80,1021.02,95.90,NaN,319.0,NaN,10.6,NaN,233.4,NaN,5.5,NaN,NaN, NaN,NaN,237.0,NaN,NaN,NaN,2,9.8,000121,   NaN,237.4,     NaN,      NaN,NaN,5.6,NaN,12.670, NaN,NaN,NaN, NaN, NaN

20040127,000233,1832375,37.386167,-124.109333,NaN,12.668,32.663,38.201,  NaN,0.0, NaN, NaN, NaN, NaN, NaN,328.310,10.70,1020.87,95.50,NaN,321.0,NaN,11.7,NaN,183.2,NaN,7.9,NaN,NaN, NaN,NaN,237.0,NaN,NaN,NaN,2,9.8,000151,   NaN,237.9,     NaN,      NaN,NaN,5.6,NaN,12.671, NaN,NaN,NaN, NaN, NaN

20040127,000303,1832405,37.385500,-124.110667,NaN,12.669,32.662,38.201,  NaN,0.0, NaN, NaN, NaN, NaN, NaN,328.446,10.80,1020.90,95.90,NaN,315.0,NaN,11.3,NaN,171.4,NaN,8.7,NaN,NaN, NaN,NaN,235.0,NaN,NaN,NaN,2,9.8,000181,   NaN,237.5,     NaN,      NaN,NaN,5.7,NaN,12.673, NaN,NaN,NaN, NaN, NaN

20040127,000333,1832435,37.384667,-124.112167,NaN,12.668,32.661,38.200,  NaN,0.0, NaN, NaN, NaN, NaN, NaN,328.477,10.80,1021.08,96.10,NaN,323.0,NaN,11.7,NaN,175.8,NaN,8.6,NaN,NaN, NaN,NaN,235.0,NaN,NaN,NaN,2,9.8,000211,   NaN,237.4,     NaN,      NaN,NaN,5.9,NaN,12.671, NaN,NaN,NaN, NaN, NaN

20040127,000403,1832465,37.384000,-124.113500,NaN,12.669,32.660,38.199,  NaN,0.0, NaN, NaN, NaN, NaN, NaN,328.592,10.80,1020.86,95.70,NaN,321.0,NaN,12.0,NaN,177.1,NaN,8.9,NaN,NaN, NaN,NaN,236.0,NaN,NaN,NaN,2,9.8,000241,   NaN,238.4,     NaN,      NaN,NaN,5.7,NaN,12.673, NaN,NaN,NaN, NaN, NaN

20040127,000433,1832495,37.383167,-124.115000,NaN,12.669,32.659,38.199,  NaN,0.0, NaN, NaN, NaN, NaN, NaN,328.616,10.70,1020.96,95.70,NaN,322.0,NaN,11.7,NaN,177.7,NaN,9.6,NaN,NaN, NaN,NaN,234.0,NaN,NaN,NaN,2,9.8,000271,   NaN,237.4,     NaN,      NaN,NaN,5.5,NaN,12.673, NaN,NaN,NaN, NaN, NaN

20040127,000503,1832525,37.382500,-124.116333,NaN,12.671,32.657,38.198,  NaN,0.0, NaN, NaN, NaN, NaN, NaN,328.851,10.70,1021.08,95.90,NaN,322.0,NaN,11.1,NaN,174.6,NaN,7.3,NaN,NaN, NaN,NaN,238.0,NaN,NaN,NaN,2,9.6,000301,   NaN,237.3,     NaN,      NaN,NaN,5.6,NaN,12.674, NaN,NaN,NaN, NaN, NaN

20040127,000533,1832555,37.381667,-124.117833,NaN,12.671,32.657,38.198,  NaN,0.0, NaN, NaN, NaN, NaN, NaN,328.851,10.80,1020.83,95.90,NaN,318.0,NaN,12.3,NaN,173.8,NaN,9.4,NaN,NaN, NaN,NaN,237.0,NaN,NaN,NaN,2,9.6,000331,   NaN,238.1,     NaN,      NaN,NaN,5.6,NaN,12.675, NaN,NaN,NaN, NaN, NaN

20040127,000603,1832585,37.381000,-124.119167,NaN,12.672,32.657,38.199,  NaN,0.0, NaN, NaN, NaN, NaN, NaN,328.849,10.80,1020.95,96.10,NaN,324.0,NaN,9.8,NaN,182.3,NaN,6.6,NaN,NaN, NaN,NaN,236.0,NaN,NaN,NaN,2,9.7,000361,   NaN,238.1,     NaN,      NaN,NaN,5.7,NaN,12.675, NaN,NaN,NaN, NaN, NaN

20040127,000633,1832615,37.380167,-124.120667,NaN,12.674,32.655,38.198,  NaN,0.0, NaN, NaN, NaN, NaN, NaN,329.007,10.80,1020.74,96.20,NaN,319.0,NaN,12.6,NaN,173.4,NaN,8.5,NaN,NaN, NaN,NaN,237.0,NaN,NaN,NaN,2,9.6,000391,   NaN,238.4,     NaN,      NaN,NaN,5.6,NaN,12.677, NaN,NaN,NaN, NaN, NaN

20040127,000703,1832645,37.379500,-124.122000,NaN,12.675,32.654,38.198,  NaN,0.0, NaN, NaN, NaN, NaN, NaN,329.099,10.80,1020.68,95.70,NaN,322.0,NaN,12.7,NaN,181.3,NaN,8.3,NaN,NaN, NaN,NaN,235.0,NaN,NaN,NaN,2,9.7,000421,   NaN,237.9,     NaN,      NaN,NaN,5.8,NaN,12.678, NaN,NaN,NaN, NaN, NaN

20040127,000733,1832675,37.378667,-124.123500,NaN,12.675,32.654,38.198,  NaN,0.0, NaN, NaN, NaN, NaN, NaN,329.121,10.70,1020.78,95.80,NaN,321.0,NaN,11.6,NaN,177.4,NaN,8.9,NaN,NaN, NaN,NaN,234.0,NaN,NaN,NaN,2,9.7,000451,   NaN,238.4,     NaN,      NaN,NaN,5.6,NaN,12.678, NaN,NaN,NaN, NaN, NaN

20040127,000803,1832705,37.378000,-124.124833,NaN,12.676,32.652,38.198,  NaN,0.0, NaN, NaN, NaN, NaN, NaN,329.264,10.70,1020.94,95.80,NaN,358.0,NaN,11.8,NaN,233.5,NaN,7.4,NaN,NaN, NaN,NaN,235.0,NaN,NaN,NaN,2,9.6,000481,   NaN,237.0,     NaN,      NaN,NaN,5.6,NaN,12.679, NaN,NaN,NaN, NaN, NaN

20040127,000833,1832735,37.377333,-124.126167,NaN,12.678,32.651,38.198,  NaN,0.0, NaN, NaN, NaN, NaN, NaN,329.378,10.80,1020.76,95.90,NaN,320.0,NaN,12.7,NaN,172.9,NaN,8.6,NaN,NaN, NaN,NaN,237.0,NaN,NaN,NaN,2,9.7,000511,   NaN,236.3,     NaN,      NaN,NaN,5.7,NaN,12.681, NaN,NaN,NaN, NaN, NaN

20040127,000903,1832765,37.376500,-124.127667,NaN,12.678,32.651,38.198,  NaN,0.0, NaN, NaN, NaN, NaN, NaN,329.378,10.80,1021.03,95.90,NaN,324.0,NaN,10.6,NaN,176.5,NaN,7.3,NaN,NaN, NaN,NaN,236.0,NaN,NaN,NaN,2,9.6,000541,   NaN,237.9,     NaN,      NaN,NaN,5.6,NaN,12.681, NaN,NaN,NaN, NaN, NaN

20040127,000933,1832795,37.375833,-124.129000,NaN,12.680,32.649,38.198,  NaN,0.0, NaN, NaN, NaN, NaN, NaN,329.560,10.80,1021.01,96.10,NaN,329.0,NaN,10.6,NaN,183.2,NaN,7.9,NaN,NaN, NaN,NaN,237.0,NaN,NaN,NaN,2,9.6,000571,   NaN,239.1,     NaN,      NaN,NaN,5.6,NaN,12.683, NaN,NaN,NaN, NaN, NaN

20040127,001003,1832825,37.375000,-124.130500,NaN,12.679,32.650,38.197,  NaN,0.0, NaN, NaN, NaN, NaN, NaN,329.516,10.80,1021.20,95.90,NaN,320.0,NaN,11.5,NaN,178.6,NaN,7.9,NaN,NaN, NaN,NaN,240.0,NaN,NaN,NaN,2,9.8,000601,   NaN,238.2,     NaN,      NaN,NaN,5.7,NaN,12.682, NaN,NaN,NaN, NaN, NaN

20040127,001033,1832855,37.374333,-124.132000,NaN,12.680,32.648,38.196,  NaN,0.0, NaN, NaN, NaN, NaN, NaN,329.682,10.70,1020.97,95.80,NaN,321.0,NaN,11.7,NaN,234.0,NaN,6.6,NaN,NaN, NaN,NaN,238.0,NaN,NaN,NaN,2,9.8,000631,   NaN,237.5,     NaN,      NaN,NaN,5.7,NaN,12.683, NaN,NaN,NaN, NaN, NaN

20040127,001103,1832885,37.373667,-124.133333,NaN,12.680,32.647,38.195,  NaN,0.0, NaN, NaN, NaN, NaN, NaN,329.758,10.80,1021.03,96.20,NaN,325.0,NaN,9.4,NaN,177.2,NaN,6.3,NaN,NaN, NaN,NaN,238.0,NaN,NaN,NaN,2,9.8,000661,   NaN,237.7,     NaN,      NaN,NaN,5.7,NaN,12.683, NaN,NaN,NaN, NaN, NaN

20040127,001133,1832915,37.372833,-124.134833,NaN,12.680,32.644,38.192,  NaN,0.0, NaN, NaN, NaN, NaN, NaN,329.951,10.90,1021.04,96.30,NaN,358.0,NaN,11.0,NaN,186.8,NaN,7.5,NaN,NaN, NaN,NaN,237.0,NaN,NaN,NaN,2,9.8,000691,   NaN,238.3,     NaN,      NaN,NaN,5.6,NaN,12.683, NaN,NaN,NaN, NaN, NaN

20040127,001203,1832945,37.372167,-124.136167,NaN,12.680,32.643,38.192,  NaN,0.0, NaN, NaN, NaN, NaN, NaN,330.000,10.80,1020.96,96.10,NaN,327.0,NaN,11.0,NaN,182.6,NaN,8.0,NaN,NaN, NaN,NaN,235.0,NaN,NaN,NaN,2,9.8,000721,   NaN,237.0,     NaN,      NaN,NaN,5.5,NaN,12.683, NaN,NaN,NaN, NaN, NaN

20040127,001233,1832975,37.371333,-124.137667,NaN,12.680,32.642,38.191,  NaN,0.0, NaN, NaN, NaN, NaN, NaN,330.053,10.80,1021.06,95.80,NaN,358.0,NaN,11.0,NaN,174.7,NaN,7.9,NaN,NaN, NaN,NaN,238.0,NaN,NaN,NaN,2,9.8,000751,   NaN,238.9,     NaN,      NaN,NaN,5.7,NaN,12.683, NaN,NaN,NaN, NaN, NaN

20040127,001303,1833005,37.370667,-124.139000,NaN,12.680,32.642,38.190,  NaN,0.0, NaN, NaN, NaN, NaN, NaN,330.102,10.80,1020.94,96.20,NaN,323.0,NaN,10.0,NaN,172.4,NaN,7.0,NaN,NaN, NaN,NaN,239.0,NaN,NaN,NaN,2,9.9,000781,   NaN,238.5,     NaN,      NaN,NaN,5.8,NaN,12.683, NaN,NaN,NaN, NaN, NaN

20040127,001333,1833035,37.370000,-124.140500,NaN,12.680,32.642,38.190,  NaN,0.0, NaN, NaN, NaN, NaN, NaN,330.121,10.80,1020.64,95.90,NaN,318.0,NaN,10.8,NaN,177.8,NaN,8.0,NaN,NaN, NaN,NaN,238.0,NaN,NaN,NaN,2,9.8,000811,   NaN,237.1,     NaN,      NaN,NaN,5.6,NaN,12.683, NaN,NaN,NaN, NaN, NaN

20040127,001403,1833065,37.369167,-124.141833,NaN,12.682,32.641,38.190,  NaN,0.0, NaN, NaN, NaN, NaN, NaN,330.214,10.80,1020.83,96.20,NaN,319.0,NaN,11.1,NaN,175.6,NaN,7.1,NaN,NaN, NaN,NaN,236.0,NaN,NaN,NaN,2,9.8,000841,   NaN,237.6,     NaN,      NaN,NaN,6.1,NaN,12.685, NaN,NaN,NaN, NaN, NaN

20040127,001433,1833095,37.368333,-124.143333,NaN,12.683,32.639,38.190,  NaN,0.0, NaN, NaN, NaN, NaN, NaN,330.351,10.80,1020.85,96.30,NaN,322.0,NaN,10.2,NaN,173.9,NaN,7.4,NaN,NaN, NaN,NaN,237.0,NaN,NaN,NaN,2,9.9,000871,   NaN,238.7,     NaN,      NaN,NaN,5.8,NaN,12.686, NaN,NaN,NaN, NaN, NaN

20040127,001503,1833125,37.367667,-124.144833,NaN,12.683,32.641,38.192,  NaN,0.0, NaN, NaN, NaN, NaN, NaN,330.251,10.80,1020.76,95.90,NaN,358.0,NaN,10.6,NaN,165.5,NaN,8.6,NaN,NaN, NaN,NaN,237.0,NaN,NaN,NaN,2,9.8,000901,   NaN,236.7,     NaN,      NaN,NaN,5.8,NaN,12.686, NaN,NaN,NaN, NaN, NaN

20040127,001533,1833155,37.367000,-124.146167,NaN,12.684,32.641,38.193,  NaN,0.0, NaN, NaN, NaN, NaN, NaN,330.269,10.80,1020.78,96.10,NaN,321.0,NaN,11.7,NaN,171.5,NaN,7.3,NaN,NaN, NaN,NaN,237.0,NaN,NaN,NaN,2,9.8,000931,   NaN,238.2,     NaN,      NaN,NaN,6.0,NaN,12.687, NaN,NaN,NaN, NaN, NaN

20040127,001603,1833185,37.366167,-124.147667,NaN,12.684,32.641,38.193,  NaN,0.0, NaN, NaN, NaN, NaN, NaN,330.247,10.90,1020.64,96.20,NaN,319.0,NaN,12.7,NaN,176.0,NaN,8.9,NaN,NaN, NaN,NaN,237.0,NaN,NaN,NaN,2,9.9,000961,   NaN,237.7,     NaN,      NaN,NaN,5.7,NaN,12.687, NaN,NaN,NaN, NaN, NaN

20040127,001633,1833215,37.365500,-124.149167,NaN,12.684,32.642,38.193,  NaN,0.0, NaN, NaN, NaN, NaN, NaN,330.198,10.80,1020.79,95.70,NaN,322.0,NaN,11.7,NaN,175.4,NaN,8.5,NaN,NaN, NaN,NaN,236.0,NaN,NaN,NaN,2,9.8,000991,   NaN,238.1,     NaN,      NaN,NaN,5.7,NaN,12.687, NaN,NaN,NaN, NaN, NaN

20040127,001703,1833245,37.364833,-124.150500,NaN,12.685,32.641,38.194,  NaN,0.0, NaN, NaN, NaN, NaN, NaN,330.267,10.80,1020.95,96.20,NaN,322.0,NaN,11.7,NaN,174.4,NaN,8.3,NaN,NaN, NaN,NaN,238.0,NaN,NaN,NaN,2,9.8,001021,   NaN,237.7,     NaN,      NaN,NaN,5.4,NaN,12.688, NaN,NaN,NaN, NaN, NaN

20040127,001733,1833275,37.364000,-124.152000,NaN,12.685,32.641,38.193,  NaN,0.0, NaN, NaN, NaN, NaN, NaN,330.290,10.80,1020.90,96.10,NaN,316.0,NaN,11.4,NaN,170.1,NaN,8.5,NaN,NaN, NaN,NaN,239.0,NaN,NaN,NaN,2,9.7,001051,   NaN,238.4,     NaN,      NaN,NaN,5.3,NaN,12.688, NaN,NaN,NaN, NaN, NaN

20040127,001803,1833305,37.363333,-124.153500,NaN,12.683,32.643,38.194,  NaN,0.0, NaN, NaN, NaN, NaN, NaN,330.084,10.80,1020.84,96.30,NaN,323.0,NaN,10.6,NaN,176.9,NaN,8.1,NaN,NaN, NaN,NaN,237.0,NaN,NaN,NaN,2,9.8,001081,   NaN,237.4,     NaN,      NaN,NaN,5.4,NaN,12.686, NaN,NaN,NaN, NaN, NaN

20040127,001833,1833335,37.362667,-124.154833,NaN,12.682,32.641,38.192,  NaN,0.0, NaN, NaN, NaN, NaN, NaN,330.185,10.90,1020.81,96.20,NaN,318.0,NaN,11.3,NaN,172.1,NaN,8.4,NaN,NaN, NaN,NaN,235.0,NaN,NaN,NaN,2,9.9,001111,   NaN,238.3,     NaN,      NaN,NaN,5.9,NaN,12.685, NaN,NaN,NaN, NaN, NaN

20040127,001903,1833365,37.361833,-124.156333,NaN,12.682,32.641,38.191,  NaN,0.0, NaN, NaN, NaN, NaN, NaN,330.211,10.80,1020.72,95.70,NaN,322.0,NaN,11.2,NaN,182.2,NaN,8.6,NaN,NaN, NaN,NaN,236.0,NaN,NaN,NaN,2,9.8,001141,   NaN,238.6,     NaN,      NaN,NaN,5.4,NaN,12.685, NaN,NaN,NaN, NaN, NaN

20040127,001933,1833395,37.361167,-124.157833,NaN,12.681,32.640,38.189,  NaN,0.0, NaN, NaN, NaN, NaN, NaN,330.266,10.70,1020.91,95.70,NaN,325.0,NaN,11.4,NaN,182.2,NaN,9.0,NaN,NaN, NaN,NaN,235.0,NaN,NaN,NaN,2,9.8,001171,   NaN,237.3,     NaN,      NaN,NaN,5.9,NaN,12.684, NaN,NaN,NaN, NaN, NaN

20040127,002003,1833425,37.360333,-124.159167,NaN,12.680,32.640,38.188,  NaN,0.0, NaN, NaN, NaN, NaN, NaN,330.223,10.80,1020.84,96.20,NaN,322.0,NaN,11.8,NaN,175.3,NaN,8.5,NaN,NaN, NaN,NaN,237.0,NaN,NaN,NaN,2,9.7,001201,   NaN,237.4,     NaN,      NaN,NaN,5.5,NaN,12.683, NaN,NaN,NaN, NaN, NaN

20040127,002033,1833455,37.359667,-124.160667,NaN,12.680,32.640,38.188,  NaN,0.0, NaN, NaN, NaN, NaN, NaN,330.203,10.70,1020.84,95.30,NaN,318.0,NaN,12.2,NaN,174.2,NaN,8.7,NaN,NaN, NaN,NaN,240.0,NaN,NaN,NaN,2,9.8,001231,   NaN,239.2,     NaN,      NaN,NaN,5.6,NaN,12.683, NaN,NaN,NaN, NaN, NaN

20040127,002103,1833485,37.359000,-124.162167,NaN,12.678,32.640,38.187,  NaN,0.0, NaN, NaN, NaN, NaN, NaN,330.210,10.70,1020.48,95.70,NaN,318.0,NaN,13.2,NaN,177.2,NaN,10.0,NaN,NaN, NaN,NaN,235.0,NaN,NaN,NaN,2,9.8,001261,   NaN,236.3,     NaN,      NaN,NaN,5.5,NaN,12.682, NaN,NaN,NaN, NaN, NaN

20040127,002133,1833515,37.358167,-124.163500,NaN,12.677,32.640,38.185,  NaN,0.0, NaN, NaN, NaN, NaN, NaN,330.147,10.80,1020.61,95.70,NaN,320.0,NaN,13.0,NaN,178.9,NaN,9.8,NaN,NaN, NaN,NaN,236.0,NaN,NaN,NaN,2,9.8,001291,   NaN,238.0,     NaN,      NaN,NaN,5.6,NaN,12.680, NaN,NaN,NaN, NaN, NaN

20040127,002203,1833545,37.357500,-124.165000,NaN,12.677,32.641,38.186,  NaN,0.0, NaN, NaN, NaN, NaN, NaN,330.144,10.80,1020.75,95.70,NaN,358.0,NaN,12.6,NaN,184.1,NaN,9.4,NaN,NaN, NaN,NaN,236.0,NaN,NaN,NaN,2,9.7,001321,   NaN,238.2,     NaN,      NaN,NaN,5.2,NaN,12.680, NaN,NaN,NaN, NaN, NaN

20040127,002233,1833575,37.356833,-124.166500,NaN,12.676,32.640,38.185,  NaN,0.0, NaN, NaN, NaN, NaN, NaN,330.148,10.80,1020.93,95.70,NaN,323.0,NaN,12.4,NaN,182.8,NaN,9.1,NaN,NaN, NaN,NaN,236.0,NaN,NaN,NaN,2,9.9,001351,   NaN,238.0,     NaN,      NaN,NaN,5.6,NaN,12.679, NaN,NaN,NaN, NaN, NaN

20040127,002303,1833605,37.356000,-124.167833,NaN,12.676,32.640,38.185,  NaN,0.0, NaN, NaN, NaN, NaN, NaN,330.150,10.80,1020.84,95.40,NaN,325.0,NaN,11.9,NaN,179.9,NaN,9.7,NaN,NaN, NaN,NaN,238.0,NaN,NaN,NaN,2,9.8,001381,   NaN,238.1,     NaN,      NaN,NaN,5.5,NaN,12.679, NaN,NaN,NaN, NaN, NaN

20040127,002333,1833635,37.355333,-124.169333,NaN,12.675,32.641,38.184,  NaN,0.0, NaN, NaN, NaN, NaN, NaN,330.105,10.70,1020.82,95.40,NaN,323.0,NaN,11.9,NaN,180.5,NaN,8.2,NaN,NaN, NaN,NaN,238.0,NaN,NaN,NaN,2,9.8,001411,   NaN,237.7,     NaN,      NaN,NaN,5.5,NaN,12.678, NaN,NaN,NaN, NaN, NaN

20040127,002403,1833665,37.354667,-124.170833,NaN,12.674,32.640,38.183,  NaN,0.0, NaN, NaN, NaN, NaN, NaN,330.110,10.80,1020.84,95.50,NaN,326.0,NaN,11.7,NaN,181.0,NaN,8.5,NaN,NaN, NaN,NaN,236.0,NaN,NaN,NaN,2,9.8,001441,   NaN,237.7,     NaN,      NaN,NaN,5.5,NaN,12.677, NaN,NaN,NaN, NaN, NaN

20040127,002433,1833695,37.353833,-124.172333,NaN,12.674,32.641,38.184,  NaN,0.0, NaN, NaN, NaN, NaN, NaN,330.040,10.80,1020.96,95.50,NaN,321.0,NaN,12.6,NaN,180.6,NaN,8.5,NaN,NaN, NaN,NaN,240.0,NaN,NaN,NaN,2,9.9,001471,   NaN,239.0,     NaN,      NaN,NaN,5.8,NaN,12.677, NaN,NaN,NaN, NaN, NaN

20040127,002503,1833725,37.353167,-124.173667,NaN,12.673,32.641,38.183,  NaN,0.0, NaN, NaN, NaN, NaN, NaN,330.046,10.80,1020.84,95.40,NaN,358.0,NaN,12.1,NaN,182.4,NaN,8.9,NaN,NaN, NaN,NaN,237.0,NaN,NaN,NaN,2,9.9,001501,   NaN,237.9,     NaN,      NaN,NaN,5.7,NaN,12.676, NaN,NaN,NaN, NaN, NaN

20040127,002533,1833755,37.352500,-124.175167,NaN,12.674,32.641,38.184,  NaN,0.0, NaN, NaN, NaN, NaN, NaN,330.062,10.80,1020.85,95.50,NaN,322.0,NaN,10.3,NaN,183.8,NaN,8.2,NaN,NaN, NaN,NaN,238.0,NaN,NaN,NaN,2,9.9,001531,   NaN,238.4,     NaN,      NaN,NaN,5.5,NaN,12.677, NaN,NaN,NaN, NaN, NaN

20040127,002603,1833785,37.351667,-124.176667,NaN,12.673,32.642,38.184,  NaN,0.0, NaN, NaN, NaN, NaN, NaN,329.995,10.80,1020.84,95.70,NaN,319.0,NaN,11.4,NaN,170.9,NaN,8.7,NaN,NaN, NaN,NaN,237.0,NaN,NaN,NaN,2,9.9,001561,   NaN,236.7,     NaN,      NaN,NaN,5.8,NaN,12.676, NaN,NaN,NaN, NaN, NaN

20040127,002633,1833815,37.351000,-124.178000,NaN,12.674,32.640,38.182,  NaN,0.0, NaN, NaN, NaN, NaN, NaN,330.136,10.90,1020.70,95.70,NaN,323.0,NaN,12.3,NaN,179.3,NaN,8.9,NaN,NaN, NaN,NaN,237.0,NaN,NaN,NaN,2,9.9,001591,   NaN,238.4,     NaN,      NaN,NaN,5.6,NaN,12.677, NaN,NaN,NaN, NaN, NaN

20040127,002703,1833845,37.350167,-124.179500,NaN,12.673,32.641,38.182,  NaN,0.0, NaN, NaN, NaN, NaN, NaN,330.048,10.90,1020.83,95.70,NaN,332.0,NaN,11.7,NaN,189.0,NaN,9.1,NaN,NaN, NaN,NaN,236.0,NaN,NaN,NaN,2,10.0,001621,   NaN,238.2,     NaN,      NaN,NaN,5.7,NaN,12.676, NaN,NaN,NaN, NaN, NaN

20040127,002733,1833875,37.349500,-124.181000,NaN,12.673,32.640,38.181,  NaN,0.0, NaN, NaN, NaN, NaN, NaN,330.098,10.80,1020.98,95.50,NaN,325.0,NaN,11.5,NaN,187.7,NaN,7.0,NaN,NaN, NaN,NaN,238.0,NaN,NaN,NaN,2,9.9,001651,   NaN,237.5,     NaN,      NaN,NaN,5.7,NaN,12.676, NaN,NaN,NaN, NaN, NaN

20040127,002803,1833905,37.348833,-124.182500,NaN,12.671,32.642,38.182,  NaN,0.0, NaN, NaN, NaN, NaN, NaN,329.959,10.90,1021.10,95.70,NaN,330.0,NaN,11.7,NaN,180.0,NaN,8.5,NaN,NaN, NaN,NaN,240.0,NaN,NaN,NaN,2,10.0,001681,   NaN,237.8,     NaN,      NaN,NaN,5.7,NaN,12.674, NaN,NaN,NaN, NaN, NaN

20040127,002833,1833935,37.348167,-124.183833,NaN,12.672,32.640,38.181,  NaN,0.0, NaN, NaN, NaN, NaN, NaN,330.078,10.90,1020.97,95.30,NaN,322.0,NaN,11.9,NaN,176.8,NaN,9.4,NaN,NaN, NaN,NaN,239.0,NaN,NaN,NaN,2,9.8,001711,   NaN,237.3,     NaN,      NaN,NaN,5.7,NaN,12.675, NaN,NaN,NaN, NaN, NaN

20040127,002903,1833965,37.347333,-124.185333,NaN,12.671,32.640,38.180,  NaN,0.0, NaN, NaN, NaN, NaN, NaN,330.107,10.80,1020.84,95.50,NaN,322.0,NaN,13.2,NaN,234.1,NaN,8.8,NaN,NaN, NaN,NaN,237.0,NaN,NaN,NaN,2,9.9,001741,   NaN,237.0,     NaN,      NaN,NaN,5.8,NaN,12.674, NaN,NaN,NaN, NaN, NaN

20040127,002933,1833995,37.346667,-124.186833,NaN,12.669,32.640,38.178,  NaN,0.0, NaN, NaN, NaN, NaN, NaN,330.046,10.90,1020.70,95.30,NaN,322.0,NaN,13.0,NaN,174.1,NaN,10.2,NaN,NaN, NaN,NaN,238.0,NaN,NaN,NaN,2,9.7,001771,   NaN,238.2,     NaN,      NaN,NaN,5.6,NaN,12.672, NaN,NaN,NaN, NaN, NaN

20040127,003003,1834025,37.345833,-124.188167,NaN,12.669,32.639,38.177,  NaN,0.0, NaN, NaN, NaN, NaN, NaN,330.097,10.90,1020.90,95.70,NaN,358.0,NaN,12.1,NaN,186.9,NaN,8.6,NaN,NaN, NaN,NaN,237.0,NaN,NaN,NaN,2,9.9,001801,   NaN,237.0,     NaN,      NaN,NaN,5.6,NaN,12.672, NaN,NaN,NaN, NaN, NaN

20040127,003033,1834055,37.345167,-124.189667,NaN,12.668,32.640,38.177,  NaN,0.0, NaN, NaN, NaN, NaN, NaN,330.030,10.90,1020.87,95.40,NaN,325.0,NaN,12.4,NaN,180.3,NaN,8.7,NaN,NaN, NaN,NaN,240.0,NaN,NaN,NaN,2,9.8,001831,   NaN,239.1,     NaN,      NaN,NaN,5.6,NaN,12.671, NaN,NaN,NaN, NaN, NaN

20040127,003103,1834085,37.344500,-124.191167,NaN,12.669,32.639,38.177,  NaN,0.0, NaN, NaN, NaN, NaN, NaN,330.073,10.80,1020.84,95.20,NaN,320.0,NaN,11.2,NaN,176.8,NaN,7.9,NaN,NaN, NaN,NaN,240.0,NaN,NaN,NaN,2,9.9,001861,   NaN,238.2,     NaN,      NaN,NaN,5.9,NaN,12.672, NaN,NaN,NaN, NaN, NaN

20040127,003133,1834115,37.343833,-124.192667,NaN,12.669,32.640,38.178,  NaN,0.0, NaN, NaN, NaN, NaN, NaN,330.026,10.80,1021.17,95.50,NaN,320.0,NaN,11.5,NaN,178.3,NaN,8.1,NaN,NaN, NaN,NaN,239.0,NaN,NaN,NaN,2,9.9,001891,   NaN,237.4,     NaN,      NaN,NaN,5.5,NaN,12.672, NaN,NaN,NaN, NaN, NaN

20040127,003203,1834145,37.343000,-124.194000,NaN,12.669,32.640,38.178,  NaN,0.0, NaN, NaN, NaN, NaN, NaN,330.024,10.90,1020.84,95.80,NaN,320.0,NaN,11.6,NaN,175.7,NaN,8.8,NaN,NaN, NaN,NaN,240.0,NaN,NaN,NaN,2,10.0,001921,   NaN,238.9,     NaN,      NaN,NaN,5.8,NaN,12.672, NaN,NaN,NaN, NaN, NaN

20040127,003233,1834175,37.342333,-124.195500,NaN,12.667,32.641,38.177,  NaN,0.0, NaN, NaN, NaN, NaN, NaN,329.960,10.90,1020.70,95.70,NaN,325.0,NaN,12.3,NaN,235.1,NaN,7.1,NaN,NaN, NaN,NaN,240.0,NaN,NaN,NaN,2,9.9,001951,   NaN,238.4,     NaN,      NaN,NaN,5.8,NaN,12.670, NaN,NaN,NaN, NaN, NaN

20040127,003303,1834205,37.341667,-124.197000,NaN,12.668,32.640,38.177,  NaN,0.0, NaN, NaN, NaN, NaN, NaN,330.004,11.10,1021.01,95.90,NaN,358.0,NaN,11.6,NaN,183.6,NaN,7.9,NaN,NaN, NaN,NaN,238.0,NaN,NaN,NaN,2,9.9,001981,   NaN,237.1,     NaN,      NaN,NaN,5.5,NaN,12.671, NaN,NaN,NaN, NaN, NaN

20040127,003333,1834235,37.340833,-124.198500,NaN,12.667,32.640,38.176,  NaN,0.0, NaN, NaN, NaN, NaN, NaN,330.009,10.90,1020.98,95.50,NaN,325.0,NaN,11.0,NaN,234.5,NaN,6.5,NaN,NaN, NaN,NaN,240.0,NaN,NaN,NaN,2,10.0,002011,   NaN,238.3,     NaN,      NaN,NaN,5.5,NaN,12.670, NaN,NaN,NaN, NaN, NaN

20040127,003403,1834265,37.340167,-124.200000,NaN,12.666,32.640,38.176,  NaN,0.0, NaN, NaN, NaN, NaN, NaN,329.988,10.90,1020.57,95.50,NaN,358.0,NaN,13.0,NaN,179.8,NaN,9.7,NaN,NaN, NaN,NaN,241.0,NaN,NaN,NaN,2,10.0,002041,   NaN,238.0,     NaN,      NaN,NaN,5.9,NaN,12.669, NaN,NaN,NaN, NaN, NaN

20040127,003433,1834295,37.339500,-124.201333,NaN,12.666,32.641,38.176,  NaN,0.0, NaN, NaN, NaN, NaN, NaN,329.920,10.90,1020.80,95.70,NaN,323.0,NaN,13.1,NaN,177.1,NaN,9.1,NaN,NaN, NaN,NaN,237.0,NaN,NaN,NaN,2,9.9,002071,   NaN,236.5,     NaN,      NaN,NaN,5.5,NaN,12.669, NaN,NaN,NaN, NaN, NaN

20040127,003503,1834325,37.338833,-124.202833,NaN,12.664,32.641,38.175,  NaN,0.0, NaN, NaN, NaN, NaN, NaN,329.855,10.90,1020.71,95.30,NaN,330.0,NaN,13.2,NaN,183.0,NaN,9.7,NaN,NaN, NaN,NaN,238.0,NaN,NaN,NaN,2,9.9,002101,   NaN,238.6,     NaN,      NaN,NaN,5.6,NaN,12.667, NaN,NaN,NaN, NaN, NaN

20040127,003533,1834355,37.338000,-124.204333,NaN,12.664,32.641,38.175,  NaN,0.0, NaN, NaN, NaN, NaN, NaN,329.878,10.90,1020.65,95.50,NaN,324.0,NaN,12.7,NaN,181.1,NaN,9.3,NaN,NaN, NaN,NaN,237.0,NaN,NaN,NaN,2,9.9,002131,   NaN,237.1,     NaN,      NaN,NaN,5.5,NaN,12.667, NaN,NaN,NaN, NaN, NaN

20040127,003603,1834385,37.337333,-124.205833,NaN,12.664,32.642,38.176,  NaN,0.0, NaN, NaN, NaN, NaN, NaN,329.783,10.90,1020.89,95.40,NaN,322.0,NaN,12.1,NaN,187.7,NaN,8.9,NaN,NaN, NaN,NaN,240.0,NaN,NaN,NaN,2,9.9,002161,   NaN,238.9,     NaN,      NaN,NaN,5.6,NaN,12.667, NaN,NaN,NaN, NaN, NaN

20040127,003633,1834415,37.336667,-124.207333,NaN,12.663,32.642,38.175,  NaN,0.0, NaN, NaN, NaN, NaN, NaN,329.762,10.90,1020.77,95.40,NaN,358.0,NaN,13.0,NaN,234.2,NaN,6.8,NaN,NaN, NaN,NaN,240.0,NaN,NaN,NaN,2,9.9,002191,   NaN,237.1,     NaN,      NaN,NaN,5.7,NaN,12.666, NaN,NaN,NaN, NaN, NaN

20040127,003703,1834445,37.336000,-124.208833,NaN,12.663,32.642,38.175,  NaN,0.0, NaN, NaN, NaN, NaN, NaN,329.787,10.90,1020.47,95.80,NaN,318.0,NaN,12.3,NaN,170.4,NaN,8.7,NaN,NaN, NaN,NaN,238.0,NaN,NaN,NaN,2,9.9,002221,   NaN,236.9,     NaN,      NaN,NaN,5.7,NaN,12.666, NaN,NaN,NaN, NaN, NaN

20040127,003733,1834475,37.335167,-124.210167,NaN,12.663,32.642,38.174,  NaN,0.0, NaN, NaN, NaN, NaN, NaN,329.792,11.10,1020.61,95.80,NaN,326.0,NaN,13.5,NaN,235.4,NaN,7.8,NaN,NaN, NaN,NaN,237.0,NaN,NaN,NaN,2,9.8,002251,   NaN,238.9,     NaN,      NaN,NaN,5.6,NaN,12.666, NaN,NaN,NaN, NaN, NaN

20040127,003803,1834505,37.334500,-124.211667,NaN,12.662,32.641,38.173,  NaN,0.0, NaN, NaN, NaN, NaN, NaN,329.819,10.90,1021.12,95.50,NaN,328.0,NaN,12.8,NaN,235.9,NaN,7.7,NaN,NaN, NaN,NaN,240.0,NaN,NaN,NaN,2,9.9,002281,   NaN,238.9,     NaN,      NaN,NaN,5.8,NaN,12.665, NaN,NaN,NaN, NaN, NaN

20040127,003833,1834535,37.333833,-124.213167,NaN,12.662,32.642,38.174,  NaN,0.0, NaN, NaN, NaN, NaN, NaN,329.772,10.90,1020.59,95.50,NaN,358.0,NaN,12.9,NaN,178.2,NaN,10.0,NaN,NaN, NaN,NaN,237.0,NaN,NaN,NaN,2,9.8,002311,   NaN,237.4,     NaN,      NaN,NaN,5.5,NaN,12.665, NaN,NaN,NaN, NaN, NaN

20040127,003903,1834565,37.333167,-124.214667,NaN,12.662,32.642,38.173,  NaN,0.0, NaN, NaN, NaN, NaN, NaN,329.798,10.90,1020.70,95.70,NaN,321.0,NaN,12.2,NaN,181.0,NaN,9.0,NaN,NaN, NaN,NaN,240.0,NaN,NaN,NaN,2,9.8,002341,   NaN,238.1,     NaN,      NaN,NaN,5.8,NaN,12.665, NaN,NaN,NaN, NaN, NaN

20040127,003933,1834595,37.332500,-124.216167,NaN,12.661,32.642,38.173,  NaN,0.0, NaN, NaN, NaN, NaN, NaN,329.753,11.10,1020.91,95.80,NaN,321.0,NaN,11.9,NaN,177.4,NaN,8.6,NaN,NaN, NaN,NaN,237.0,NaN,NaN,NaN,2,9.9,002371,   NaN,236.6,     NaN,      NaN,NaN,5.6,NaN,12.664, NaN,NaN,NaN, NaN, NaN

20040127,004003,1834625,37.331833,-124.217667,NaN,12.661,32.642,38.173,  NaN,0.0, NaN, NaN, NaN, NaN, NaN,329.729,11.10,1020.81,95.80,NaN,320.0,NaN,12.8,NaN,178.5,NaN,9.8,NaN,NaN, NaN,NaN,236.0,NaN,NaN,NaN,2,9.9,002401,   NaN,236.6,     NaN,      NaN,NaN,5.6,NaN,12.664, NaN,NaN,NaN, NaN, NaN
